FLOCK 3S 1

导读

FLOCK 3S 1是美国Planet(原行星实验室)公司研制的3U遥感立方体卫星,属于Flock(鸽群)星座中的一员,于2018年12月3日发射升空。单颗卫星重约5kg,一般运行在400~500km高度的近地轨道,设计寿命1~3年,主要承担遥感成像任务,Flock星座整体通过批量发射维持约200颗卫星在轨,可提供高频次的全球对地观测服务。

基本信息
目录编号:
43769
目录名称:
FLOCK 3S 1
国际标识:
2018-099M
轨道中心:
EARTH
卫星名称:
FLOCK 3S 1
卫星全名:
--
卫星状态:
已陨落 最后检测时间 2025-06-19
发射日期:
2018-12-03 UTC
国别 :
美国 (US)
星等 :
--
轨道信息
数据来源 国际轨道数据
星历时间: 2025-06-15T09:11:10+0800
轨道信息已过期361天
半长轴: 6536.384km
偏心率: 0.001832
轨道倾角: 97.406°
近地点辐角 249.994°
升交点赤经 235.260°
平近点角 109.939°
近地点: 146.274km
远地点: 170.224km
周期: 87.653分钟
每日圈数: 16.428444
详细信息
使用方式:
暂无